KNE673 OEJN-VGHS

Flight info

Callsign KNE673
Flight time 6h 0m
Altitude 41000
Route EGREP T532 KODIS Y214 RAPMA DCT KUVSO DCT KATIT DCT MIDGU M440 TULBU N881 RASKI L639 BPL A791 CEA A462 DAC
Aircraft A339/H-SADE1E2E3GHIJ1J3J5M1P2RWXY/LB2D1

Departure

Time 2026-04-29 10:07
Airport King Abdulaziz International Airport (OEJN)

Arrival

Time 2026-04-29 16:07
Airport Hazrat Shahjalal International Airport (VGHS)
Time Latitude Longitude Altitude Speed Heading
2026-04-29 08:48 21.69803 39.14440 64 ft 0 kts 249°
2026-04-29 08:52 21.69802 39.14440 64 ft 0 kts 249°
2026-04-29 08:57 21.69803 39.14440 64 ft 0 kts 249°
2026-04-29 08:57 21.69802 39.14440 64 ft 0 kts 249°
2026-04-29 09:00 21.69803 39.14440 64 ft 0 kts 249°
2026-04-29 09:01 21.69802 39.14440 64 ft 0 kts 249°
2026-04-29 09:02 21.69803 39.14440 64 ft 0 kts 249°
2026-04-29 09:03 21.69802 39.14440 64 ft 0 kts 249°
2026-04-29 09:03 21.69803 39.14440 64 ft 0 kts 249°
2026-04-29 09:03 21.69802 39.14440 64 ft 0 kts 249°
2026-04-29 09:03 21.69803 39.14440 64 ft 0 kts 249°
2026-04-29 09:04 21.69802 39.14440 64 ft 0 kts 249°
2026-04-29 09:04 21.69803 39.14440 64 ft 0 kts 249°
2026-04-29 09:05 21.69802 39.14440 64 ft 0 kts 249°
2026-04-29 09:06 21.69803 39.14440 64 ft 0 kts 249°
2026-04-29 09:07 21.69802 39.14440 64 ft 0 kts 249°
2026-04-29 09:07 21.69803 39.14440 64 ft 0 kts 249°
2026-04-29 09:08 21.69802 39.14440 64 ft 0 kts 249°
2026-04-29 09:08 21.69803 39.14440 64 ft 0 kts 249°
2026-04-29 09:09 21.69802 39.14440 64 ft 0 kts 249°
2026-04-29 09:09 21.69803 39.14440 64 ft 0 kts 249°
2026-04-29 09:10 21.69802 39.14440 64 ft 0 kts 249°
2026-04-29 09:10 21.69803 39.14440 64 ft 0 kts 249°
2026-04-29 09:10 21.69802 39.14440 64 ft 0 kts 249°
2026-04-29 09:11 21.69803 39.14440 64 ft 0 kts 249°
2026-04-29 09:12 21.69802 39.14440 64 ft 0 kts 249°
2026-04-29 09:12 21.69803 39.14440 64 ft 0 kts 249°
2026-04-29 09:14 21.69802 39.14440 64 ft 0 kts 249°
2026-04-29 09:15 21.69803 39.14440 64 ft 0 kts 249°
2026-04-29 09:16 21.69802 39.14440 64 ft 0 kts 249°
2026-04-29 09:17 21.69803 39.14440 64 ft 0 kts 249°
2026-04-29 09:21 21.69802 39.14440 64 ft 0 kts 249°
2026-04-29 09:21 21.69803 39.14440 64 ft 0 kts 249°
2026-04-29 09:24 21.69802 39.14440 64 ft 0 kts 249°
2026-04-29 09:24 21.69803 39.14440 64 ft 0 kts 249°
2026-04-29 09:45 21.69806 39.14450 64 ft 1 kts 249°
2026-04-29 09:45 21.69812 39.14464 64 ft 2 kts 234°
2026-04-29 09:45 21.69823 39.14476 64 ft 2 kts 219°
2026-04-29 09:46 21.69835 39.14485 64 ft 2 kts 204°
2026-04-29 09:46 21.69850 39.14491 64 ft 2 kts 189°
2026-04-29 09:46 21.69865 39.14492 64 ft 2 kts 175°
2026-04-29 09:46 21.69880 39.14489 64 ft 1 kts 161°
2026-04-29 09:47 21.69885 39.14487 64 ft 0 kts 158°
2026-04-29 09:52 21.69878 39.14490 64 ft 2 kts 158°
2026-04-29 09:52 21.69856 39.14500 64 ft 3 kts 158°
2026-04-29 09:52 21.69825 39.14513 64 ft 6 kts 158°
2026-04-29 09:53 21.69780 39.14541 64 ft 8 kts 143°
2026-04-29 09:53 21.69726 39.14577 64 ft 9 kts 158°
2026-04-29 09:53 21.69660 39.14605 64 ft 10 kts 160°
2026-04-29 09:53 21.69582 39.14635 64 ft 12 kts 160°
2026-04-29 09:54 21.69496 39.14669 64 ft 13 kts 160°
2026-04-29 09:54 21.69400 39.14706 64 ft 14 kts 160°
2026-04-29 09:54 21.69297 39.14746 64 ft 15 kts 160°
2026-04-29 09:54 21.69191 39.14788 64 ft 16 kts 160°
2026-04-29 09:55 21.69079 39.14832 64 ft 17 kts 159°
2026-04-29 09:55 21.68964 39.14878 64 ft 17 kts 159°
2026-04-29 09:55 21.68845 39.14926 64 ft 18 kts 159°
2026-04-29 09:55 21.68743 39.14966 64 ft 10 kts 160°
2026-04-29 09:56 21.68674 39.14994 64 ft 10 kts 156°
2026-04-29 09:56 21.68655 39.15029 64 ft 5 kts 70°
2026-04-29 09:56 21.68673 39.15072 64 ft 6 kts 70°
2026-04-29 09:56 21.68692 39.15128 64 ft 8 kts 69°
2026-04-29 09:57 21.68716 39.15193 64 ft 9 kts 71°
2026-04-29 09:57 21.68696 39.15257 64 ft 9 kts 155°
2026-04-29 09:57 21.68636 39.15276 64 ft 8 kts 155°
2026-04-29 09:57 21.68574 39.15306 64 ft 10 kts 158°
2026-04-29 09:58 21.68498 39.15335 64 ft 12 kts 160°
2026-04-29 09:58 21.68412 39.15369 64 ft 13 kts 160°
2026-04-29 09:58 21.68320 39.15405 64 ft 14 kts 160°
2026-04-29 09:58 21.68220 39.15445 64 ft 15 kts 159°
2026-04-29 09:59 21.68114 39.15488 64 ft 16 kts 159°
2026-04-29 09:59 21.68002 39.15533 64 ft 17 kts 160°
2026-04-29 09:59 21.67888 39.15579 64 ft 17 kts 159°
2026-04-29 09:59 21.67768 39.15626 64 ft 18 kts 159°
2026-04-29 10:00 21.67648 39.15675 64 ft 18 kts 159°
2026-04-29 10:00 21.67524 39.15722 64 ft 18 kts 161°
2026-04-29 10:00 21.67396 39.15771 64 ft 19 kts 160°
2026-04-29 10:00 21.67269 39.15822 64 ft 19 kts 159°
2026-04-29 10:01 21.67142 39.15872 65 ft 19 kts 160°
2026-04-29 10:01 21.67011 39.15923 64 ft 19 kts 159°
2026-04-29 10:01 21.66880 39.15975 64 ft 20 kts 160°
2026-04-29 10:01 21.66747 39.16028 65 ft 20 kts 159°
2026-04-29 10:02 21.66613 39.16081 64 ft 20 kts 159°
2026-04-29 10:02 21.66480 39.16135 64 ft 18 kts 160°
2026-04-29 10:02 21.66354 39.16184 65 ft 19 kts 161°
2026-04-29 10:02 21.66228 39.16232 64 ft 18 kts 160°
2026-04-29 10:03 21.66128 39.16272 65 ft 5 kts 160°
2026-04-29 10:03 21.66089 39.16289 65 ft 7 kts 148°
2026-04-29 10:03 21.66072 39.16340 65 ft 8 kts 75°
2026-04-29 10:03 21.66089 39.16388 65 ft 7 kts 67°
2026-04-29 10:04 21.66112 39.16444 65 ft 7 kts 66°
2026-04-29 10:04 21.66126 39.16477 65 ft 2 kts 54°
2026-04-29 10:04 21.66150 39.16484 65 ft 4 kts 350°
2026-04-29 10:04 21.66184 39.16466 65 ft 6 kts 334°
2026-04-29 10:05 21.66198 39.16460 65 ft 0 kts 339°
2026-04-29 10:06 21.66210 39.16455 65 ft 9 kts 339°
2026-04-29 10:06 21.66499 39.16341 65 ft 78 kts 340°
2026-04-29 10:06 21.67212 39.16060 65 ft 136 kts 339°
2026-04-29 10:07 21.68270 39.15646 120 ft 177 kts 341°
2026-04-29 10:07 21.69426 39.15207 799 ft 172 kts 340°
2026-04-29 10:07 21.70507 39.14783 1659 ft 160 kts 340°
2026-04-29 10:07 21.71531 39.14378 2160 ft 159 kts 340°
2026-04-29 10:08 21.72625 39.13945 2428 ft 174 kts 339°
2026-04-29 10:08 21.73820 39.13471 2703 ft 189 kts 340°
2026-04-29 10:08 21.75132 39.12951 2984 ft 206 kts 340°
2026-04-29 10:08 21.76546 39.12392 3271 ft 223 kts 340°
2026-04-29 10:09 21.78077 39.11789 3580 ft 241 kts 340°
2026-04-29 10:09 21.79730 39.11138 3939 ft 259 kts 339°
2026-04-29 10:09 21.81460 39.10457 4574 ft 266 kts 339°
2026-04-29 10:09 21.83220 39.09763 5298 ft 270 kts 338°
2026-04-29 10:10 21.85013 39.09055 5972 ft 276 kts 338°
2026-04-29 10:10 21.86846 39.08328 6661 ft 281 kts 338°
2026-04-29 10:10 21.88722 39.07583 7400 ft 284 kts 338°
2026-04-29 10:10 21.90558 39.06786 8138 ft 286 kts 334°
2026-04-29 10:11 21.92420 39.05905 8913 ft 289 kts 333°
2026-04-29 10:11 21.94276 39.05014 9635 ft 293 kts 333°
2026-04-29 10:11 21.96164 39.04110 10302 ft 297 kts 333°
2026-04-29 10:11 21.98136 39.03166 10749 ft 313 kts 333°
2026-04-29 10:12 22.00204 39.02174 11073 ft 331 kts 333°
2026-04-29 10:12 22.02409 39.01119 11470 ft 346 kts 333°
2026-04-29 10:12 22.04657 39.00046 12124 ft 352 kts 333°
2026-04-29 10:12 22.06941 38.98957 12866 ft 355 kts 333°
2026-04-29 10:13 22.09241 38.97857 13579 ft 358 kts 333°
2026-04-29 10:13 22.11585 38.96739 14322 ft 360 kts 332°
2026-04-29 10:13 22.13967 38.95766 15033 ft 367 kts 344°
2026-04-29 10:13 22.16554 38.95757 15717 ft 381 kts
2026-04-29 10:14 22.19074 38.96852 16419 ft 394 kts 30°
2026-04-29 10:14 22.21189 38.98783 17075 ft 402 kts 39°
2026-04-29 10:14 22.23267 39.00867 17693 ft 407 kts 39°
2026-04-29 10:14 22.25391 39.02972 18361 ft 411 kts 38°
2026-04-29 10:15 22.27557 39.05094 19029 ft 414 kts 39°
2026-04-29 10:15 22.29471 39.07507 19645 ft 425 kts 54°
2026-04-29 10:15 22.30769 39.10443 20290 ft 433 kts 70°
2026-04-29 10:15 22.31521 39.13617 20952 ft 437 kts 75°
2026-04-29 10:16 22.32186 39.16858 21574 ft 440 kts 75°
2026-04-29 10:16 22.32624 39.19012 21972 ft 443 kts 75°
2026-04-29 10:16 22.33541 39.23431 22733 ft 447 kts 75°
2026-04-29 10:16 22.34240 39.26708 23226 ft 452 kts 75°
2026-04-29 10:17 22.34969 39.30083 23682 ft 457 kts 75°
2026-04-29 10:17 22.35706 39.33473 24110 ft 462 kts 75°
2026-04-29 10:17 22.36450 39.36900 24529 ft 466 kts 75°
2026-04-29 10:17 22.37198 39.40352 24928 ft 471 kts 75°
2026-04-29 10:18 22.37957 39.43861 25303 ft 476 kts 75°
2026-04-29 10:18 22.38722 39.47400 25711 ft 479 kts 75°
2026-04-29 10:18 22.39492 39.50975 26196 ft 480 kts 76°
2026-04-29 10:18 22.40260 39.54523 26588 ft 483 kts 76°
2026-04-29 10:19 22.41036 39.58118 26911 ft 488 kts 76°
2026-04-29 10:19 22.41816 39.61737 27242 ft 492 kts 76°
2026-04-29 10:19 22.42610 39.65412 27559 ft 497 kts 77°
2026-04-29 10:19 22.43400 39.69077 27843 ft 501 kts 77°
2026-04-29 10:20 22.44202 39.72804 28160 ft 504 kts 77°
2026-04-29 10:20 22.45006 39.76547 28444 ft 508 kts 77°
2026-04-29 10:20 22.45968 39.80253 28754 ft 511 kts 68°
2026-04-29 10:20 22.47556 39.83717 29095 ft 511 kts 55°
2026-04-29 10:21 22.49768 39.86800 29468 ft 508 kts 42°
2026-04-29 10:21 22.52395 39.89441 29851 ft 506 kts 37°
2026-04-29 10:21 22.55061 39.91920 30221 ft 508 kts 36°
2026-04-29 10:21 22.57822 39.94460 30573 ft 511 kts 36°
2026-04-29 10:22 22.60548 39.96993 30895 ft 514 kts 37°
2026-04-29 10:22 22.63250 39.99532 31213 ft 518 kts 37°
2026-04-29 10:22 22.66000 40.02140 31571 ft 520 kts 37°
2026-04-29 10:22 22.68730 40.04743 31951 ft 522 kts 37°
2026-04-29 10:23 22.71516 40.07407 32306 ft 524 kts 37°
2026-04-29 10:23 22.74285 40.10059 32660 ft 526 kts 38°
2026-04-29 10:23 22.77056 40.12713 33044 ft 528 kts 38°
2026-04-29 10:23 22.79841 40.15386 33581 ft 526 kts 38°
2026-04-29 10:24 22.82606 40.18043 34207 ft 523 kts 38°
2026-04-29 10:24 22.85365 40.20694 34839 ft 519 kts 38°
2026-04-29 10:24 22.88066 40.23288 35432 ft 516 kts 38°
2026-04-29 10:24 22.90774 40.25892 35951 ft 514 kts 38°
2026-04-29 10:25 22.93473 40.28487 36391 ft 514 kts 38°
2026-04-29 10:25 22.96157 40.31073 36831 ft 513 kts 38°
2026-04-29 10:25 22.98850 40.33664 37294 ft 511 kts 38°
2026-04-29 10:25 23.01534 40.36248 37728 ft 510 kts 38°
2026-04-29 10:26 23.04214 40.38831 38143 ft 509 kts 38°
2026-04-29 10:26 23.06883 40.41406 38598 ft 508 kts 39°
2026-04-29 10:26 23.09563 40.43992 39049 ft 507 kts 38°
2026-04-29 10:26 23.12233 40.46572 39427 ft 507 kts 38°
2026-04-29 10:27 23.17528 40.51689 40021 ft 508 kts 38°
2026-04-29 10:27 23.20189 40.54263 40273 ft 509 kts 39°
2026-04-29 10:27 23.22759 40.56976 40522 ft 512 kts 44°
2026-04-29 10:28 23.25114 40.59912 40772 ft 514 kts 50°
2026-04-29 10:28 23.27255 40.63102 40987 ft 517 kts 55°
2026-04-29 10:28 23.29132 40.66483 41058 ft 519 kts 62°
2026-04-29 10:29 23.32079 40.73720 41064 ft 519 kts 70°
2026-04-29 10:29 23.34607 40.81163 41063 ft 520 kts 70°
2026-04-29 10:30 23.37131 40.88569 41065 ft 519 kts 70°
2026-04-29 10:30 23.39686 40.95985 41062 ft 520 kts 70°
2026-04-29 10:31 23.42248 41.03396 41057 ft 520 kts 70°
2026-04-29 10:31 23.44826 41.10863 41057 ft 520 kts 70°
2026-04-29 10:32 23.47379 41.18274 41053 ft 520 kts 70°
2026-04-29 10:32 23.49925 41.25678 41050 ft 521 kts 70°
2026-04-29 10:33 23.52471 41.33091 41046 ft 521 kts 70°
2026-04-29 10:33 23.55004 41.40485 41045 ft 521 kts 70°
2026-04-29 10:34 23.57552 41.47928 41041 ft 521 kts 70°
2026-04-29 10:34 23.60085 41.55349 41043 ft 522 kts 70°
2026-04-29 10:35 23.62615 41.62759 41039 ft 521 kts 70°
2026-04-29 10:35 23.65148 41.70203 41039 ft 522 kts 70°
2026-04-29 10:36 23.67661 41.77644 41038 ft 522 kts 71°
2026-04-29 10:36 23.70058 41.85166 41039 ft 522 kts 72°
2026-04-29 10:37 23.72425 41.92664 41040 ft 522 kts 71°
2026-04-29 10:37 23.74818 42.00176 41032 ft 522 kts 71°
2026-04-29 10:38 23.77352 42.07621 41035 ft 523 kts 70°
2026-04-29 10:38 23.79922 42.15070 41040 ft 524 kts 70°
2026-04-29 10:39 23.82485 42.22561 41037 ft 525 kts 70°
2026-04-29 10:39 23.85027 42.30019 41035 ft 524 kts 70°
2026-04-29 10:40 23.87574 42.37508 41038 ft 524 kts 70°
2026-04-29 10:40 23.90100 42.44967 41036 ft 524 kts 70°
2026-04-29 10:41 23.92634 42.52452 41040 ft 524 kts 70°
2026-04-29 10:41 23.95169 42.59949 41040 ft 523 kts 70°
2026-04-29 10:42 23.97699 42.67453 41036 ft 524 kts 71°
2026-04-29 10:42 24.00220 42.74941 41041 ft 523 kts 71°
2026-04-29 10:43 24.02445 42.82528 41042 ft 521 kts 80°
2026-04-29 10:43 24.03183 42.90383 41048 ft 516 kts 95°
2026-04-29 10:44 24.02311 42.98061 41053 ft 507 kts 108°
2026-04-29 10:44 24.00343 43.05452 41057 ft 504 kts 112°
2026-04-29 10:45 23.98270 43.12824 41054 ft 505 kts 111°
2026-04-29 10:45 23.96252 43.20151 41051 ft 504 kts 111°
2026-04-29 10:46 23.94237 43.27519 41040 ft 504 kts 111°
2026-04-29 10:46 23.92231 43.34856 41053 ft 504 kts 111°
2026-04-29 10:47 23.90225 43.42196 41055 ft 504 kts 111°
2026-04-29 10:47 23.88204 43.49569 41047 ft 503 kts 111°
2026-04-29 10:48 23.86188 43.56908 41053 ft 503 kts 111°
2026-04-29 10:48 23.84175 43.64226 41044 ft 502 kts 111°
2026-04-29 10:49 23.82161 43.71537 41032 ft 502 kts 111°
2026-04-29 10:49 23.80147 43.78832 41017 ft 501 kts 111°
2026-04-29 10:50 23.78224 43.86219 41015 ft 509 kts 107°
2026-04-29 10:50 23.76974 43.93926 41013 ft 522 kts 99°
2026-04-29 10:51 23.76342 44.01932 41011 ft 529 kts 97°
2026-04-29 10:51 23.75775 44.09967 41003 ft 530 kts 97°
2026-04-29 10:52 23.75189 44.18004 41013 ft 530 kts 97°
2026-04-29 10:52 23.74588 44.26036 41018 ft 530 kts 97°
2026-04-29 10:53 23.73980 44.34042 41015 ft 529 kts 97°
2026-04-29 10:53 23.73367 44.42039 41024 ft 530 kts 97°
2026-04-29 10:54 23.72750 44.50056 41035 ft 530 kts 97°
2026-04-29 10:54 23.72126 44.58125 41035 ft 530 kts 97°
2026-04-29 10:55 23.71501 44.66144 41024 ft 530 kts 98°
2026-04-29 10:55 23.70875 44.74134 41031 ft 530 kts 98°
2026-04-29 10:56 23.70244 44.82163 41029 ft 530 kts 98°
2026-04-29 10:56 23.69603 44.90184 41022 ft 530 kts 98°
2026-04-29 10:57 23.68955 44.98225 40999 ft 529 kts 98°
2026-04-29 10:57 23.68307 45.06234 40986 ft 529 kts 98°
2026-04-29 10:58 23.67660 45.14248 40987 ft 529 kts 98°
2026-04-29 10:58 23.67005 45.22250 40989 ft 528 kts 98°
2026-04-29 10:59 23.66344 45.30224 40985 ft 528 kts 98°
2026-04-29 10:59 23.65683 45.38186 40982 ft 528 kts 98°
2026-04-29 11:00 23.65016 45.46172 40981 ft 528 kts 98°
2026-04-29 11:00 23.64350 45.54175 40969 ft 526 kts 98°
2026-04-29 11:01 23.63681 45.62115 40958 ft 526 kts 98°
2026-04-29 11:01 23.62998 45.70086 40944 ft 525 kts 98°
2026-04-29 11:02 23.62319 45.77993 40926 ft 525 kts 98°
2026-04-29 11:02 23.61631 45.85963 40928 ft 524 kts 98°
2026-04-29 11:03 23.60945 45.93883 40919 ft 524 kts 98°
2026-04-29 11:03 23.60254 46.01808 40925 ft 523 kts 98°
2026-04-29 11:04 23.59563 46.09687 40936 ft 522 kts 98°
2026-04-29 11:04 23.58870 46.17564 40948 ft 522 kts 98°
2026-04-29 11:05 23.58171 46.25467 40963 ft 521 kts 98°
2026-04-29 11:05 23.57466 46.33373 40981 ft 521 kts 98°
2026-04-29 11:06 23.56762 46.41279 40995 ft 521 kts 98°
2026-04-29 11:06 23.56052 46.49171 41007 ft 520 kts 98°
2026-04-29 11:07 23.55328 46.57114 41002 ft 522 kts 98°
2026-04-29 11:07 23.54604 46.64976 40975 ft 521 kts 98°
2026-04-29 11:08 23.53880 46.72871 40955 ft 521 kts 98°
2026-04-29 11:08 23.53150 46.80756 40934 ft 521 kts 98°
2026-04-29 11:09 23.52419 46.88639 40918 ft 522 kts 98°
2026-04-29 11:09 23.51682 46.96547 40909 ft 521 kts 98°
2026-04-29 11:10 23.50942 47.04455 40902 ft 521 kts 98°
2026-04-29 11:10 23.50201 47.12300 40900 ft 521 kts 98°
2026-04-29 11:11 23.49453 47.20198 40892 ft 521 kts 98°
2026-04-29 11:11 23.48701 47.28096 40888 ft 520 kts 98°
2026-04-29 11:12 23.47949 47.35956 40886 ft 520 kts 98°
2026-04-29 11:12 23.47190 47.43847 40884 ft 521 kts 98°
2026-04-29 11:13 23.46434 47.51678 40884 ft 520 kts 98°
2026-04-29 11:13 23.45661 47.59564 40881 ft 520 kts 98°
2026-04-29 11:14 23.44886 47.67454 40872 ft 520 kts 99°
2026-04-29 11:14 23.44114 47.75284 40869 ft 519 kts 99°
2026-04-29 11:15 23.43333 47.83182 40860 ft 520 kts 99°
2026-04-29 11:15 23.42554 47.91025 40850 ft 520 kts 99°
2026-04-29 11:16 23.41772 47.98867 40847 ft 521 kts 99°
2026-04-29 11:16 23.40981 48.06736 40836 ft 521 kts 99°
2026-04-29 11:17 23.40193 48.14566 40836 ft 520 kts 99°
2026-04-29 11:17 23.39394 48.22466 40838 ft 521 kts 99°
2026-04-29 11:18 23.38599 48.30278 40834 ft 520 kts 98°
2026-04-29 11:18 23.38026 48.38180 40834 ft 522 kts 95°
2026-04-29 11:19 23.37709 48.46073 40835 ft 521 kts 95°
2026-04-29 11:19 23.37400 48.53941 40835 ft 521 kts 94°
2026-04-29 11:20 23.37080 48.61873 40833 ft 520 kts 95°
2026-04-29 11:20 23.36756 48.69706 40830 ft 520 kts 95°
2026-04-29 11:21 23.36425 48.77577 40829 ft 520 kts 95°
2026-04-29 11:21 23.36090 48.85505 40817 ft 520 kts 95°
2026-04-29 11:22 23.35754 48.93388 40800 ft 520 kts 95°
2026-04-29 11:22 23.35412 49.01259 40781 ft 519 kts 95°
2026-04-29 11:23 23.34808 49.09078 40768 ft 517 kts 101°
2026-04-29 11:23 23.33714 49.16827 40760 ft 517 kts 102°
2026-04-29 11:24 23.32588 49.24543 40757 ft 516 kts 102°
2026-04-29 11:24 23.31467 49.32273 40753 ft 516 kts 102°
2026-04-29 11:25 23.30339 49.40044 40755 ft 516 kts 101°
2026-04-29 11:25 23.29224 49.47731 40759 ft 515 kts 102°
2026-04-29 11:26 23.27538 49.59301 40762 ft 515 kts 102°
2026-04-29 11:26 23.26413 49.66993 40762 ft 515 kts 102°
2026-04-29 11:27 23.25276 49.74726 40765 ft 514 kts 102°
2026-04-29 11:27 23.24141 49.82420 40764 ft 514 kts 102°
2026-04-29 11:28 23.23009 49.90068 40762 ft 514 kts 102°
2026-04-29 11:28 23.21867 49.97755 40759 ft 513 kts 102°
2026-04-29 11:29 23.20722 50.05441 40758 ft 513 kts 102°
2026-04-29 11:29 23.19576 50.13125 40758 ft 513 kts 102°
2026-04-29 11:30 23.18428 50.20781 40755 ft 512 kts 102°
2026-04-29 11:30 23.17273 50.28448 40758 ft 512 kts 102°
2026-04-29 11:31 23.16117 50.36114 40766 ft 512 kts 102°
2026-04-29 11:31 23.14958 50.43753 40766 ft 512 kts 102°
2026-04-29 11:32 23.13793 50.51416 40756 ft 512 kts 102°
2026-04-29 11:32 23.12628 50.59058 40748 ft 512 kts 102°
2026-04-29 11:33 23.11458 50.66707 40740 ft 512 kts 102°
2026-04-29 11:33 23.10285 50.74345 40738 ft 511 kts 102°
2026-04-29 11:34 23.09113 50.81954 40737 ft 510 kts 102°
2026-04-29 11:34 23.07929 50.89613 40735 ft 510 kts 102°
2026-04-29 11:35 23.06756 50.97172 40730 ft 509 kts 102°
2026-04-29 11:35 23.05574 51.04773 40727 ft 509 kts 102°
2026-04-29 11:36 23.04387 51.12385 40724 ft 510 kts 102°
2026-04-29 11:36 23.03196 51.19992 40721 ft 510 kts 102°
2026-04-29 11:37 23.02001 51.27596 40722 ft 510 kts 102°
2026-04-29 11:37 23.00802 51.35204 40717 ft 510 kts 102°
2026-04-29 11:38 22.99598 51.42822 40720 ft 510 kts 102°
2026-04-29 11:38 22.98397 51.50390 40717 ft 509 kts 102°
2026-04-29 11:39 22.97193 51.57967 40706 ft 508 kts 102°
2026-04-29 11:39 22.95978 51.65579 40703 ft 508 kts 102°
2026-04-29 11:40 22.94769 51.73139 40701 ft 509 kts 102°
2026-04-29 11:40 22.93552 51.80706 40703 ft 509 kts 102°
2026-04-29 11:41 22.92334 51.88275 40701 ft 509 kts 103°
2026-04-29 11:41 22.91102 51.95892 40715 ft 509 kts 102°
2026-04-29 11:42 22.89877 52.03450 40720 ft 509 kts 102°
2026-04-29 11:42 22.88650 52.11007 40721 ft 508 kts 102°
2026-04-29 11:43 22.87418 52.18570 40725 ft 508 kts 102°
2026-04-29 11:43 22.86183 52.26119 40726 ft 508 kts 102°
2026-04-29 11:44 22.84939 52.33714 40729 ft 507 kts 102°
2026-04-29 11:44 22.83700 52.41257 40728 ft 507 kts 102°
2026-04-29 11:45 22.82475 52.48783 40732 ft 507 kts 101°
2026-04-29 11:45 22.81519 52.56367 40730 ft 508 kts 99°
2026-04-29 11:46 22.80605 52.63974 40734 ft 508 kts 99°
2026-04-29 11:46 22.79686 52.71587 40732 ft 507 kts 100°
2026-04-29 11:47 22.78764 52.79178 40735 ft 508 kts 100°
2026-04-29 11:47 22.77838 52.86769 40735 ft 507 kts 100°
2026-04-29 11:48 22.76907 52.94362 40735 ft 508 kts 100°
2026-04-29 11:48 22.75971 53.01963 40737 ft 507 kts 100°
2026-04-29 11:49 22.75034 53.09550 40734 ft 507 kts 100°
2026-04-29 11:49 22.74095 53.17119 40728 ft 506 kts 100°
2026-04-29 11:50 22.73147 53.24735 40725 ft 506 kts 100°
2026-04-29 11:50 22.72204 53.32277 40725 ft 506 kts 100°
2026-04-29 11:51 22.71252 53.39859 40728 ft 506 kts 100°
2026-04-29 11:51 22.70297 53.47436 40723 ft 506 kts 100°
2026-04-29 11:52 22.69336 53.55036 40722 ft 507 kts 100°
2026-04-29 11:52 22.68373 53.62622 40728 ft 506 kts 100°
2026-04-29 11:53 22.67411 53.70168 40731 ft 505 kts 100°
2026-04-29 11:53 22.66446 53.77707 40733 ft 505 kts 100°
2026-04-29 11:54 22.65476 53.85262 40739 ft 505 kts 100°
2026-04-29 11:54 22.64502 53.92817 40743 ft 506 kts 100°
2026-04-29 11:55 22.63522 54.00383 40750 ft 506 kts 100°
2026-04-29 11:55 22.62542 54.07938 40746 ft 506 kts 100°
2026-04-29 11:56 22.61553 54.15523 40742 ft 505 kts 100°
2026-04-29 11:56 22.60569 54.23040 40732 ft 505 kts 100°
2026-04-29 11:57 22.59580 54.30571 40730 ft 504 kts 100°
2026-04-29 11:57 22.58587 54.38099 40733 ft 504 kts 100°
2026-04-29 11:58 22.57596 54.45586 40732 ft 504 kts 100°
2026-04-29 11:58 22.56590 54.53162 40731 ft 505 kts 100°
2026-04-29 11:59 22.55586 54.60699 40722 ft 505 kts 100°
2026-04-29 11:59 22.54580 54.68230 40714 ft 504 kts 100°
2026-04-29 12:00 22.53571 54.75749 40716 ft 504 kts 100°
2026-04-29 12:00 22.52558 54.83255 40710 ft 503 kts 100°
2026-04-29 12:01 22.51545 54.90753 40715 ft 503 kts 100°
2026-04-29 12:01 22.50528 54.98260 40716 ft 502 kts 100°
2026-04-29 12:02 22.49507 55.05766 40724 ft 503 kts 100°
2026-04-29 12:02 22.48478 55.13320 40724 ft 504 kts 100°
2026-04-29 12:03 22.47450 55.20835 40727 ft 504 kts 100°
2026-04-29 12:03 22.46522 55.28411 40720 ft 505 kts 96°
2026-04-29 12:04 22.46558 55.36042 40719 ft 507 kts 86°
2026-04-29 12:04 22.47763 55.43559 40719 ft 509 kts 76°
2026-04-29 12:05 22.50068 55.50794 40719 ft 510 kts 69°
2026-04-29 12:05 22.52788 55.57957 40720 ft 510 kts 68°
2026-04-29 12:06 22.55486 55.65070 40718 ft 510 kts 69°
2026-04-29 12:06 22.58167 55.72200 40725 ft 510 kts 69°
2026-04-29 12:07 22.60820 55.79293 40723 ft 510 kts 69°
2026-04-29 12:07 22.63484 55.86433 40722 ft 509 kts 69°
2026-04-29 12:08 22.66140 55.93564 40722 ft 508 kts 69°
2026-04-29 12:08 22.68780 56.00664 40726 ft 509 kts 69°
2026-04-29 12:09 22.71428 56.07795 40726 ft 509 kts 69°
2026-04-29 12:09 22.74085 56.14958 40734 ft 510 kts 69°
2026-04-29 12:10 22.76731 56.22105 40742 ft 510 kts 69°
2026-04-29 12:10 22.79373 56.29255 40753 ft 510 kts 68°
2026-04-29 12:11 22.81921 56.36457 40769 ft 509 kts 72°
2026-04-29 12:11 22.83816 56.43823 40782 ft 508 kts 78°
2026-04-29 12:12 22.85262 56.51362 40792 ft 508 kts 79°
2026-04-29 12:12 22.86670 56.58868 40802 ft 508 kts 79°
2026-04-29 12:13 22.88092 56.66407 40826 ft 509 kts 79°
2026-04-29 12:13 22.89516 56.73948 40837 ft 509 kts 79°
2026-04-29 12:14 22.90933 56.81466 40852 ft 509 kts 79°
2026-04-29 12:14 22.92353 56.89020 40873 ft 509 kts 79°
2026-04-29 12:15 22.93767 56.96562 40891 ft 509 kts 79°
2026-04-29 12:15 22.95181 57.04118 40909 ft 508 kts 79°
2026-04-29 12:16 22.96587 57.11647 40919 ft 509 kts 79°
2026-04-29 12:16 22.97991 57.19190 40934 ft 508 kts 79°
2026-04-29 12:17 22.99370 57.26747 40955 ft 509 kts 81°
2026-04-29 12:17 23.00222 57.34348 40952 ft 509 kts 87°
2026-04-29 12:18 23.00506 57.42043 40935 ft 509 kts 89°
2026-04-29 12:18 23.00730 57.49733 40920 ft 509 kts 89°
2026-04-29 12:19 23.00961 57.57429 40916 ft 510 kts 88°
2026-04-29 12:19 23.01195 57.65125 40919 ft 510 kts 89°
2026-04-29 12:20 23.01428 57.72879 40931 ft 510 kts 89°
2026-04-29 12:20 23.01657 57.80581 40939 ft 509 kts 89°
2026-04-29 12:21 23.01842 57.88278 40936 ft 509 kts 90°
2026-04-29 12:21 23.01831 57.95978 40937 ft 509 kts 91°
2026-04-29 12:22 23.01807 58.03692 40938 ft 510 kts 91°
2026-04-29 12:22 23.01797 58.11391 40935 ft 509 kts 90°
2026-04-29 12:23 23.01792 58.19103 40932 ft 510 kts 90°
2026-04-29 12:23 23.01785 58.26807 40934 ft 510 kts 90°
2026-04-29 12:24 23.01772 58.34524 40939 ft 510 kts 90°
2026-04-29 12:24 23.01912 58.42222 40947 ft 510 kts 88°
2026-04-29 12:25 23.02177 58.49968 40954 ft 510 kts 88°
2026-04-29 12:26 23.02571 58.61522 40926 ft 511 kts 88°
2026-04-29 12:26 23.02826 58.69243 40898 ft 511 kts 88°
2026-04-29 12:27 23.03077 58.76981 40870 ft 511 kts 88°
2026-04-29 12:27 23.03323 58.84683 40894 ft 511 kts 88°
2026-04-29 12:28 23.03567 58.92422 40925 ft 512 kts 88°
2026-04-29 12:28 23.03806 59.00166 40962 ft 512 kts 88°
2026-04-29 12:29 23.04034 59.07910 40943 ft 512 kts 88°
2026-04-29 12:29 23.04259 59.15648 40875 ft 511 kts 88°
2026-04-29 12:30 23.04482 59.23329 40798 ft 512 kts 88°
2026-04-29 12:30 23.04704 59.31103 40757 ft 511 kts 88°
2026-04-29 12:31 23.04915 59.38833 40751 ft 512 kts 88°
2026-04-29 12:31 23.05039 59.46548 40744 ft 511 kts 89°
2026-04-29 12:32 23.05148 59.54299 40738 ft 512 kts 89°
2026-04-29 12:32 23.05260 59.62020 40736 ft 512 kts 89°
2026-04-29 12:33 23.05374 59.69804 40734 ft 513 kts 89°
2026-04-29 12:33 23.05483 59.77522 40725 ft 512 kts 89°
2026-04-29 12:34 23.05591 59.85294 40713 ft 512 kts 89°
2026-04-29 12:34 23.05692 59.93019 40706 ft 512 kts 89°
2026-04-29 12:35 23.05786 60.00758 40707 ft 512 kts 89°
2026-04-29 12:35 23.05878 60.08479 40705 ft 512 kts 89°
2026-04-29 12:36 23.05967 60.16245 40704 ft 511 kts 89°
2026-04-29 12:36 23.06051 60.23949 40704 ft 512 kts 89°
2026-04-29 12:37 23.06134 60.31716 40705 ft 512 kts 89°
2026-04-29 12:37 23.06215 60.39483 40713 ft 512 kts 89°
2026-04-29 12:38 23.06290 60.47195 40722 ft 511 kts 89°
2026-04-29 12:38 23.06362 60.54956 40724 ft 511 kts 89°
2026-04-29 12:39 23.06429 60.62674 40721 ft 512 kts 89°
2026-04-29 12:39 23.06490 60.70398 40721 ft 511 kts 89°
2026-04-29 12:40 23.06548 60.78141 40722 ft 511 kts 89°
2026-04-29 12:40 23.06605 60.85912 40719 ft 511 kts 89°
2026-04-29 12:41 23.06659 60.93614 40718 ft 511 kts 89°
2026-04-29 12:41 23.06708 61.01382 40717 ft 511 kts 89°
2026-04-29 12:42 23.06753 61.09089 40720 ft 512 kts 89°
2026-04-29 12:42 23.06797 61.16852 40716 ft 511 kts 89°
2026-04-29 12:43 23.06836 61.24577 40713 ft 511 kts 89°
2026-04-29 12:43 23.06871 61.32323 40704 ft 511 kts 89°
2026-04-29 12:44 23.06903 61.40035 40704 ft 511 kts 89°
2026-04-29 12:44 23.06931 61.47789 40698 ft 512 kts 89°
2026-04-29 12:45 23.06951 61.55509 40697 ft 512 kts 89°
2026-04-29 12:45 23.06970 61.63268 40703 ft 511 kts 89°
2026-04-29 12:46 23.06985 61.70990 40700 ft 511 kts 89°
2026-04-29 12:46 23.06992 61.78755 40699 ft 511 kts 89°
2026-04-29 12:47 23.06993 61.86463 40698 ft 511 kts 89°
2026-04-29 12:47 23.06994 61.94230 40703 ft 511 kts 89°
2026-04-29 12:48 23.06990 62.01928 40701 ft 512 kts 89°
2026-04-29 12:48 23.06984 62.09691 40705 ft 512 kts 89°
2026-04-29 12:49 23.06974 62.17468 40705 ft 512 kts 89°
2026-04-29 12:49 23.06959 62.25197 40715 ft 512 kts 89°
2026-04-29 12:50 23.06943 62.32930 40718 ft 512 kts 89°
2026-04-29 12:50 23.06922 62.40662 40713 ft 512 kts 89°
2026-04-29 12:51 23.06896 62.48452 40708 ft 512 kts 89°
2026-04-29 12:51 23.06868 62.56169 40713 ft 512 kts 89°
2026-04-29 12:52 23.06835 62.63913 40709 ft 512 kts 89°
2026-04-29 12:52 23.06798 62.71655 40705 ft 512 kts 89°
2026-04-29 12:53 23.06758 62.79422 40707 ft 512 kts 89°
2026-04-29 12:53 23.06715 62.87177 40706 ft 513 kts 89°
2026-04-29 12:54 23.06668 62.94921 40702 ft 513 kts 89°
2026-04-29 12:54 23.06616 63.02656 40701 ft 512 kts 89°
2026-04-29 12:55 23.06560 63.10410 40701 ft 512 kts 89°
2026-04-29 12:55 23.06501 63.18199 40701 ft 513 kts 89°
2026-04-29 12:56 23.06439 63.25942 40700 ft 512 kts 89°
2026-04-29 12:56 23.06373 63.33667 40699 ft 512 kts 89°
2026-04-29 12:57 23.06303 63.41447 40698 ft 512 kts 89°
2026-04-29 12:57 23.06229 63.49209 40702 ft 513 kts 89°
2026-04-29 12:58 23.06152 63.56932 40700 ft 512 kts 89°
2026-04-29 12:58 23.06070 63.64717 40698 ft 512 kts 88°
2026-04-29 12:59 23.05988 63.72435 40699 ft 513 kts 89°
2026-04-29 12:59 23.05899 63.80225 40698 ft 513 kts 89°
2026-04-29 13:00 23.05662 63.87984 40703 ft 514 kts 93°
2026-04-29 13:00 23.04920 63.95711 40711 ft 514 kts 95°
2026-04-29 13:01 23.04118 64.03437 40720 ft 514 kts 95°
2026-04-29 13:01 23.03317 64.11195 40723 ft 514 kts 94°
2026-04-29 13:02 23.02523 64.18908 40719 ft 514 kts 94°
2026-04-29 13:02 23.01726 64.26630 40710 ft 514 kts 94°
2026-04-29 13:03 23.00927 64.34339 40705 ft 514 kts 94°
2026-04-29 13:03 23.00119 64.42091 40706 ft 513 kts 94°
2026-04-29 13:04 22.99312 64.49813 40703 ft 513 kts 94°
2026-04-29 13:04 22.98505 64.57499 40703 ft 513 kts 94°
2026-04-29 13:05 22.97689 64.65235 40705 ft 514 kts 95°
2026-04-29 13:05 22.96874 64.72935 40703 ft 514 kts 95°
2026-04-29 13:06 22.96071 64.80635 40704 ft 513 kts 93°
2026-04-29 13:06 22.95771 64.88401 40704 ft 511 kts 88°
2026-04-29 13:07 22.95816 64.96094 40703 ft 510 kts 87°
2026-04-29 13:07 22.95873 65.03834 40705 ft 510 kts 87°
2026-04-29 13:08 22.95918 65.11521 40703 ft 511 kts 87°
2026-04-29 13:08 22.95956 65.19225 40703 ft 511 kts 87°
2026-04-29 13:09 22.95989 65.26975 40706 ft 511 kts 87°
2026-04-29 13:09 22.96018 65.34721 40715 ft 511 kts 87°
2026-04-29 13:10 22.96043 65.42420 40719 ft 511 kts 87°
2026-04-29 13:10 22.96064 65.50157 40721 ft 512 kts 87°
2026-04-29 13:11 22.96082 65.57905 40723 ft 511 kts 87°
2026-04-29 13:11 22.96096 65.65647 40713 ft 511 kts 88°
2026-04-29 13:12 22.96105 65.73348 40708 ft 512 kts 88°
2026-04-29 13:12 22.96111 65.81107 40705 ft 512 kts 87°
2026-04-29 13:13 22.96113 65.88790 40704 ft 511 kts 87°
2026-04-29 13:13 22.96113 65.96522 40707 ft 511 kts 87°
2026-04-29 13:14 22.96108 66.04266 40705 ft 512 kts 87°
2026-04-29 13:14 22.96100 66.12015 40707 ft 512 kts 87°
2026-04-29 13:15 22.96088 66.19752 40705 ft 512 kts 87°
2026-04-29 13:15 22.96071 66.27500 40706 ft 513 kts 87°
2026-04-29 13:16 22.96051 66.35242 40706 ft 514 kts 87°
2026-04-29 13:16 22.96027 66.43012 40704 ft 514 kts 87°
2026-04-29 13:17 22.96000 66.50749 40705 ft 514 kts 87°
2026-04-29 13:17 22.95970 66.58552 40704 ft 514 kts 87°
2026-04-29 13:18 22.95934 66.66323 40704 ft 514 kts 88°
2026-04-29 13:18 22.95896 66.74098 40704 ft 514 kts 88°
2026-04-29 13:19 22.95854 66.81847 40703 ft 514 kts 88°
2026-04-29 13:19 22.95810 66.89601 40704 ft 515 kts 88°
2026-04-29 13:20 22.95762 66.97397 40705 ft 515 kts 87°
2026-04-29 13:20 22.95772 67.05172 40703 ft 515 kts 87°
2026-04-29 13:21 22.95794 67.12985 40703 ft 516 kts 86°
2026-04-29 13:21 22.95811 67.20773 40704 ft 516 kts 87°
2026-04-29 13:22 22.95821 67.28583 40705 ft 515 kts 87°
2026-04-29 13:22 22.95825 67.36329 40703 ft 515 kts 86°
2026-04-29 13:23 22.95826 67.44136 40705 ft 515 kts 86°
2026-04-29 13:23 22.95824 67.51926 40704 ft 515 kts 86°
2026-04-29 13:24 22.95818 67.59699 40702 ft 515 kts 87°
2026-04-29 13:24 22.95808 67.67462 40703 ft 515 kts 87°
2026-04-29 13:25 22.95794 67.75237 40704 ft 515 kts 87°
2026-04-29 13:25 22.95768 67.86970 40707 ft 515 kts 87°
2026-04-29 13:26 22.95767 67.94733 40705 ft 515 kts 86°
2026-04-29 13:26 22.95778 68.02505 40705 ft 515 kts 86°
2026-04-29 13:27 22.95783 68.10296 40704 ft 515 kts 86°
2026-04-29 13:27 22.95783 68.18050 40706 ft 515 kts 86°
2026-04-29 13:28 22.95780 68.25859 40705 ft 515 kts 86°
2026-04-29 13:28 22.95773 68.33662 40708 ft 515 kts 86°
2026-04-29 13:29 22.95572 68.41438 40711 ft 517 kts 90°
2026-04-29 13:29 22.95121 68.49258 40714 ft 517 kts 90°
2026-04-29 13:30 22.94662 68.57026 40716 ft 517 kts 90°
2026-04-29 13:30 22.94204 68.64816 40719 ft 517 kts 90°
2026-04-29 13:31 22.93747 68.72627 40719 ft 517 kts 91°
2026-04-29 13:31 22.93283 68.80472 40721 ft 518 kts 91°
2026-04-29 13:32 22.92815 68.88287 40723 ft 518 kts 90°
2026-04-29 13:32 22.92346 68.96085 40722 ft 518 kts 90°
2026-04-29 13:33 22.91873 69.03904 40714 ft 517 kts 90°
2026-04-29 13:33 22.91399 69.11695 40709 ft 517 kts 90°
2026-04-29 13:34 22.90921 69.19491 40710 ft 518 kts 90°
2026-04-29 13:34 22.90433 69.27332 40708 ft 517 kts 90°
2026-04-29 13:35 22.89947 69.35117 40711 ft 518 kts 90°
2026-04-29 13:35 22.89454 69.42930 40714 ft 519 kts 90°
2026-04-29 13:36 22.88959 69.50774 40715 ft 519 kts 90°
2026-04-29 13:36 22.88459 69.58588 40720 ft 520 kts 90°
2026-04-29 13:37 22.87954 69.66427 40711 ft 521 kts 91°
2026-04-29 13:37 22.87462 69.74256 40714 ft 521 kts 90°
2026-04-29 13:38 22.87007 69.82145 40715 ft 521 kts 90°
2026-04-29 13:38 22.86555 69.89977 40712 ft 520 kts 90°
2026-04-29 13:39 22.86095 69.97823 40712 ft 520 kts 90°
2026-04-29 13:39 22.85631 70.05645 40712 ft 520 kts 90°
2026-04-29 13:40 22.85162 70.13484 40708 ft 521 kts 90°
2026-04-29 13:40 22.84687 70.21382 40703 ft 521 kts 90°
2026-04-29 13:41 22.84209 70.29247 40691 ft 522 kts 90°
2026-04-29 13:41 22.83728 70.37096 40686 ft 522 kts 90°
2026-04-29 13:42 22.83243 70.44940 40692 ft 522 kts 90°
2026-04-29 13:42 22.82755 70.52799 40690 ft 522 kts 90°
2026-04-29 13:43 22.82262 70.60690 40699 ft 521 kts 90°
2026-04-29 13:43 22.81768 70.68534 40694 ft 520 kts 90°
2026-04-29 13:44 22.81282 70.76333 40704 ft 520 kts 89°
2026-04-29 13:44 22.81281 70.84190 40700 ft 516 kts 83°
2026-04-29 13:45 22.82059 70.91877 40698 ft 513 kts 77°
2026-04-29 13:45 22.83222 70.99553 40701 ft 512 kts 76°
2026-04-29 13:46 22.84386 71.07193 40713 ft 512 kts 76°
2026-04-29 13:46 22.85535 71.14829 40716 ft 513 kts 76°
2026-04-29 13:47 22.86677 71.22494 40713 ft 514 kts 76°
2026-04-29 13:47 22.87809 71.30128 40709 ft 514 kts 76°
2026-04-29 13:48 22.88945 71.37825 40704 ft 513 kts 76°
2026-04-29 13:48 22.90070 71.45473 40698 ft 512 kts 76°
2026-04-29 13:49 22.91189 71.53114 40684 ft 512 kts 76°
2026-04-29 13:49 22.92307 71.60757 40676 ft 513 kts 76°
2026-04-29 13:50 22.93422 71.68405 40663 ft 513 kts 76°
2026-04-29 13:50 22.94540 71.76108 40659 ft 513 kts 77°
2026-04-29 13:51 22.95646 71.83757 40655 ft 513 kts 76°
2026-04-29 13:51 22.96732 71.91298 40659 ft 513 kts 77°
2026-04-29 13:52 22.97833 71.98963 40664 ft 514 kts 77°
2026-04-29 13:52 22.98940 72.06698 40661 ft 514 kts 77°
2026-04-29 13:53 23.00032 72.14362 40666 ft 514 kts 77°
2026-04-29 13:53 23.01122 72.22027 40663 ft 514 kts 76°
2026-04-29 13:54 23.02206 72.29687 40669 ft 514 kts 76°
2026-04-29 13:54 23.03297 72.37408 40665 ft 514 kts 76°
2026-04-29 13:55 23.04379 72.45097 40663 ft 515 kts 76°
2026-04-29 13:55 23.05457 72.52791 40664 ft 515 kts 76°
2026-04-29 13:56 23.06527 72.60487 40665 ft 516 kts 77°
2026-04-29 13:56 23.07190 72.68282 40664 ft 519 kts 82°
2026-04-29 13:57 23.07618 72.76101 40665 ft 518 kts 82°
2026-04-29 13:57 23.08043 72.83922 40671 ft 519 kts 82°
2026-04-29 13:58 23.08471 72.91749 40673 ft 519 kts 82°
2026-04-29 13:58 23.08897 72.99580 40673 ft 519 kts 82°
2026-04-29 13:59 23.09324 73.07465 40681 ft 520 kts 82°
2026-04-29 13:59 23.09747 73.15309 40677 ft 520 kts 82°
2026-04-29 14:00 23.10165 73.23180 40685 ft 520 kts 82°
2026-04-29 14:00 23.10582 73.31042 40681 ft 520 kts 82°
2026-04-29 14:01 23.10990 73.38875 40685 ft 520 kts 82°
2026-04-29 14:01 23.11396 73.46729 40686 ft 519 kts 82°
2026-04-29 14:02 23.11801 73.54614 40689 ft 520 kts 82°
2026-04-29 14:02 23.12200 73.62466 40692 ft 520 kts 82°
2026-04-29 14:03 23.12596 73.70335 40685 ft 521 kts 82°
2026-04-29 14:03 23.12986 73.78194 40689 ft 521 kts 82°
2026-04-29 14:04 23.13373 73.86056 40699 ft 521 kts 82°
2026-04-29 14:04 23.13758 73.93922 40706 ft 520 kts 82°
2026-04-29 14:05 23.14138 74.01801 40716 ft 520 kts 82°
2026-04-29 14:05 23.14516 74.09714 40720 ft 520 kts 82°
2026-04-29 14:06 23.14889 74.17570 40722 ft 521 kts 82°
2026-04-29 14:06 23.15257 74.25423 40726 ft 520 kts 82°
2026-04-29 14:07 23.15621 74.33272 40733 ft 520 kts 82°
2026-04-29 14:07 23.15853 74.41192 40747 ft 522 kts 84°
2026-04-29 14:08 23.15992 74.49092 40765 ft 522 kts 84°
2026-04-29 14:08 23.16137 74.56999 40775 ft 522 kts 84°
2026-04-29 14:09 23.16289 74.64896 40773 ft 521 kts 84°
2026-04-29 14:09 23.16442 74.72782 40768 ft 522 kts 84°
2026-04-29 14:10 23.16590 74.80659 40767 ft 521 kts 84°
2026-04-29 14:10 23.16737 74.88525 40772 ft 522 kts 84°
2026-04-29 14:11 23.16880 74.96410 40780 ft 521 kts 84°
2026-04-29 14:11 23.17016 75.04312 40783 ft 521 kts 84°
2026-04-29 14:12 23.17149 75.12195 40781 ft 521 kts 84°
2026-04-29 14:12 23.17281 75.20124 40781 ft 522 kts 84°
2026-04-29 14:13 23.17408 75.28003 40790 ft 521 kts 84°
2026-04-29 14:13 23.17530 75.35887 40792 ft 521 kts 84°
2026-04-29 14:14 23.17648 75.43767 40798 ft 521 kts 84°
2026-04-29 14:14 23.17764 75.51690 40798 ft 521 kts 84°
2026-04-29 14:15 23.17874 75.59590 40800 ft 522 kts 84°
2026-04-29 14:15 23.17979 75.67461 40794 ft 521 kts 84°
2026-04-29 14:16 23.18084 75.75343 40798 ft 522 kts 84°
2026-04-29 14:16 23.18185 75.83279 40797 ft 522 kts 84°
2026-04-29 14:17 23.18280 75.91172 40801 ft 522 kts 84°
2026-04-29 14:17 23.18391 75.99054 40798 ft 521 kts 83°
2026-04-29 14:18 23.18901 76.06891 40800 ft 518 kts 80°
2026-04-29 14:18 23.19520 76.14715 40792 ft 518 kts 80°
2026-04-29 14:19 23.20134 76.22514 40782 ft 518 kts 80°
2026-04-29 14:19 23.20741 76.30376 40780 ft 518 kts 79°
2026-04-29 14:20 23.21338 76.38180 40779 ft 518 kts 79°
2026-04-29 14:20 23.21934 76.46027 40779 ft 518 kts 80°
2026-04-29 14:21 23.22521 76.53833 40781 ft 517 kts 79°
2026-04-29 14:21 23.23107 76.61648 40781 ft 518 kts 79°
2026-04-29 14:22 23.23692 76.69512 40777 ft 519 kts 80°
2026-04-29 14:22 23.24270 76.77340 40779 ft 518 kts 80°
2026-04-29 14:23 23.24843 76.85142 40791 ft 517 kts 80°
2026-04-29 14:23 23.25413 76.92970 40786 ft 517 kts 80°
2026-04-29 14:24 23.25981 77.00824 40778 ft 518 kts 80°
2026-04-29 14:24 23.26552 77.08745 40768 ft 517 kts 80°
2026-04-29 14:25 23.27111 77.16589 40768 ft 518 kts 80°
2026-04-29 14:25 23.27666 77.24408 40758 ft 517 kts 80°
2026-04-29 14:26 23.28164 77.32207 40758 ft 520 kts 82°
2026-04-29 14:26 23.28076 77.40157 40757 ft 523 kts 87°
2026-04-29 14:27 23.27740 77.48071 40756 ft 522 kts 87°
2026-04-29 14:28 23.27242 77.59634 40765 ft 523 kts 87°
2026-04-29 14:28 23.26906 77.67526 40789 ft 515 kts 88°
2026-04-29 14:28 23.26738 77.71368 40774 ft 502 kts 87°
2026-04-29 14:29 23.26574 77.75142 40687 ft 500 kts 87°
2026-04-29 14:29 23.26249 77.82773 40767 ft 500 kts 87°
2026-04-29 14:30 23.25924 77.90360 40745 ft 501 kts 87°
2026-04-29 14:30 23.25585 77.98037 40743 ft 500 kts 87°
2026-04-29 14:31 23.25273 78.05027 40730 ft 500 kts 87°
2026-04-29 14:31 23.24892 78.13515 40730 ft 501 kts 87°
2026-04-29 14:32 23.24547 78.21093 40731 ft 501 kts 87°
2026-04-29 14:32 23.24196 78.28737 40813 ft 501 kts 87°
2026-04-29 14:33 23.23844 78.36309 40687 ft 501 kts 87°
2026-04-29 14:33 23.23486 78.43947 40734 ft 502 kts 87°
2026-04-29 14:34 23.23126 78.51536 40716 ft 501 kts 87°
2026-04-29 14:34 23.22763 78.59127 40727 ft 501 kts 87°
2026-04-29 14:35 23.22399 78.66696 40728 ft 501 kts 88°
2026-04-29 14:35 23.22045 78.74271 40734 ft 500 kts 86°
2026-04-29 14:36 23.21915 78.81928 40733 ft 499 kts 85°
2026-04-29 14:36 23.21813 78.89449 40730 ft 499 kts 85°
2026-04-29 14:37 23.21706 78.97020 40724 ft 500 kts 85°
2026-04-29 14:37 23.21587 79.04681 40728 ft 501 kts 85°
2026-04-29 14:38 23.21465 79.12281 40732 ft 499 kts 85°
2026-04-29 14:38 23.21341 79.19828 40735 ft 499 kts 85°
2026-04-29 14:39 23.21213 79.27400 40737 ft 498 kts 85°
2026-04-29 14:39 23.21082 79.34928 40726 ft 498 kts 85°
2026-04-29 14:40 23.20948 79.42512 40724 ft 498 kts 85°
2026-04-29 14:40 23.20812 79.50043 40721 ft 498 kts 85°
2026-04-29 14:41 23.20666 79.57568 40727 ft 498 kts 86°
2026-04-29 14:41 23.20367 79.65125 40728 ft 499 kts 88°
2026-04-29 14:42 23.20026 79.72637 40731 ft 498 kts 87°
2026-04-29 14:42 23.19697 79.80184 40731 ft 498 kts 88°
2026-04-29 14:43 23.19375 79.87721 40732 ft 498 kts 88°
2026-04-29 14:43 23.19047 79.95248 40722 ft 497 kts 87°
2026-04-29 14:44 23.18720 80.02731 40711 ft 497 kts 87°
2026-04-29 14:44 23.18367 80.10280 40719 ft 497 kts 88°
2026-04-29 14:45 23.17975 80.17783 40724 ft 497 kts 88°
2026-04-29 14:45 23.17583 80.25269 40741 ft 497 kts 88°
2026-04-29 14:46 23.17187 80.32803 40754 ft 496 kts 88°
2026-04-29 14:46 23.16793 80.40311 40770 ft 496 kts 88°
2026-04-29 14:47 23.16395 80.47773 40785 ft 494 kts 88°
2026-04-29 14:47 23.15997 80.55212 40795 ft 494 kts 88°
2026-04-29 14:48 23.15593 80.62717 40806 ft 495 kts 88°
2026-04-29 14:48 23.15185 80.70194 40808 ft 495 kts 88°
2026-04-29 14:49 23.14775 80.77661 40811 ft 495 kts 88°
2026-04-29 14:49 23.14368 80.85126 40818 ft 494 kts 88°
2026-04-29 14:50 23.13962 80.92595 40830 ft 494 kts 88°
2026-04-29 14:50 23.13552 81.00064 40831 ft 494 kts 88°
2026-04-29 14:51 23.13140 81.07516 40826 ft 493 kts 89°
2026-04-29 14:51 23.12725 81.14957 40814 ft 492 kts 89°
2026-04-29 14:52 23.12306 81.22387 40820 ft 492 kts 89°
2026-04-29 14:52 23.11885 81.29810 40813 ft 492 kts 89°
2026-04-29 14:53 23.11460 81.37238 40813 ft 492 kts 89°
2026-04-29 14:53 23.11030 81.44663 40813 ft 492 kts 89°
2026-04-29 14:54 23.10598 81.52097 40810 ft 492 kts 89°
2026-04-29 14:54 23.10164 81.59533 40802 ft 491 kts 89°
2026-04-29 14:55 23.09725 81.66952 40782 ft 492 kts 89°
2026-04-29 14:55 23.09283 81.74363 40769 ft 491 kts 89°
2026-04-29 14:56 23.08839 81.81786 40770 ft 491 kts 90°
2026-04-29 14:56 23.08391 81.89185 40765 ft 490 kts 90°
2026-04-29 14:57 23.07940 81.96578 40764 ft 489 kts 90°
2026-04-29 14:57 23.07486 82.03990 40765 ft 489 kts 90°
2026-04-29 14:58 23.07031 82.11362 40754 ft 490 kts 90°
2026-04-29 14:58 23.06589 82.18746 40753 ft 489 kts 89°
2026-04-29 14:59 23.06271 82.26119 40742 ft 489 kts 89°
2026-04-29 14:59 23.05963 82.33517 40742 ft 489 kts 89°
2026-04-29 15:00 23.05645 82.40904 40744 ft 489 kts 89°
2026-04-29 15:00 23.05321 82.48292 40747 ft 488 kts 89°
2026-04-29 15:01 23.04990 82.55662 40748 ft 487 kts 89°
2026-04-29 15:01 23.04658 82.62983 40749 ft 487 kts 89°
2026-04-29 15:02 23.04320 82.70369 40752 ft 488 kts 89°
2026-04-29 15:02 23.03978 82.77788 40767 ft 489 kts 89°
2026-04-29 15:03 23.03635 82.85135 40780 ft 489 kts 90°
2026-04-29 15:03 23.03285 82.92548 40795 ft 489 kts 90°
2026-04-29 15:04 23.02933 82.99924 40798 ft 489 kts 90°
2026-04-29 15:04 23.02579 83.07304 40803 ft 489 kts 90°
2026-04-29 15:05 23.02219 83.14700 40804 ft 488 kts 90°
2026-04-29 15:05 23.01858 83.22061 40809 ft 489 kts 90°
2026-04-29 15:06 23.01494 83.29434 40807 ft 488 kts 90°
2026-04-29 15:06 23.01127 83.36802 40818 ft 488 kts 90°
2026-04-29 15:07 23.00755 83.44173 40823 ft 488 kts 90°
2026-04-29 15:07 23.00379 83.51547 40822 ft 487 kts 90°
2026-04-29 15:08 23.00001 83.58922 40829 ft 487 kts 90°
2026-04-29 15:08 22.99618 83.66335 40843 ft 486 kts 90°
2026-04-29 15:09 22.99231 83.73709 40862 ft 487 kts 90°
2026-04-29 15:09 22.98844 83.81066 40870 ft 487 kts 90°
2026-04-29 15:10 22.98453 83.88430 40871 ft 487 kts 90°
2026-04-29 15:10 22.98062 83.95774 40878 ft 486 kts 91°
2026-04-29 15:11 22.97665 84.03108 40883 ft 486 kts 91°
2026-04-29 15:11 22.97267 84.10419 40884 ft 485 kts 91°
2026-04-29 15:12 22.96810 84.17725 40882 ft 485 kts 92°
2026-04-29 15:12 22.96266 84.25045 40866 ft 485 kts 92°
2026-04-29 15:13 22.95727 84.32352 40835 ft 484 kts 92°
2026-04-29 15:13 22.95188 84.39704 40834 ft 483 kts 92°
2026-04-29 15:14 22.94649 84.47014 40821 ft 474 kts 92°
2026-04-29 15:14 22.94125 84.54081 40818 ft 462 kts 92°
2026-04-29 15:15 22.93607 84.61060 40814 ft 457 kts 92°
2026-04-29 15:15 22.93091 84.67992 40804 ft 455 kts 93°
2026-04-29 15:16 22.92573 84.74908 40793 ft 455 kts 93°
2026-04-29 15:16 22.92053 84.81782 40783 ft 455 kts 93°
2026-04-29 15:17 22.91531 84.88652 40790 ft 455 kts 93°
2026-04-29 15:17 22.91005 84.95551 40781 ft 455 kts 93°
2026-04-29 15:18 22.90476 85.02428 40780 ft 455 kts 93°
2026-04-29 15:18 22.89941 85.09340 40782 ft 454 kts 93°
2026-04-29 15:19 22.89408 85.16207 40781 ft 453 kts 93°
2026-04-29 15:19 22.88878 85.23051 40780 ft 453 kts 93°
2026-04-29 15:20 22.88345 85.29936 40762 ft 453 kts 93°
2026-04-29 15:20 22.87804 85.36860 40768 ft 453 kts 93°
2026-04-29 15:21 22.87267 85.43729 40757 ft 450 kts 93°
2026-04-29 15:21 22.86726 85.50575 40753 ft 449 kts 93°
2026-04-29 15:22 22.86193 85.57320 40736 ft 446 kts 94°
2026-04-29 15:22 22.85654 85.64095 40737 ft 445 kts 94°
2026-04-29 15:23 22.85114 85.70858 40728 ft 444 kts 94°
2026-04-29 15:23 22.84575 85.77563 40720 ft 446 kts 95°
2026-04-29 15:24 22.84030 85.84293 40731 ft 447 kts 95°
2026-04-29 15:24 22.83479 85.91051 40732 ft 444 kts 95°
2026-04-29 15:25 22.82931 85.97750 40736 ft 442 kts 95°
2026-04-29 15:25 22.82383 86.04435 40745 ft 442 kts 95°
2026-04-29 15:26 22.81837 86.11070 40743 ft 442 kts 95°
2026-04-29 15:26 22.81281 86.17775 40743 ft 443 kts 95°
2026-04-29 15:27 22.80894 86.24487 40746 ft 444 kts 94°
2026-04-29 15:27 22.80556 86.31174 40748 ft 443 kts 94°
2026-04-29 15:28 22.80203 86.37869 40751 ft 442 kts 94°
2026-04-29 15:28 22.79842 86.44553 40751 ft 442 kts 94°
2026-04-29 15:29 22.79477 86.51218 40756 ft 442 kts 94°
2026-04-29 15:30 22.78732 86.64635 40763 ft 443 kts 94°
2026-04-29 15:30 22.78355 86.71363 40749 ft 443 kts 95°
2026-04-29 15:31 22.77976 86.78071 40754 ft 443 kts 95°
2026-04-29 15:31 22.77593 86.84776 40754 ft 443 kts 95°
2026-04-29 15:32 22.77209 86.91479 40741 ft 443 kts 95°
2026-04-29 15:32 22.76816 86.98251 40735 ft 453 kts 95°
2026-04-29 15:33 22.76411 87.05206 40727 ft 466 kts 95°
2026-04-29 15:33 22.75991 87.12314 40721 ft 469 kts 95°
2026-04-29 15:34 22.76181 87.19457 40724 ft 471 kts 80°
2026-04-29 15:34 22.78309 87.26206 40741 ft 472 kts 68°
2026-04-29 15:35 22.80970 87.32783 40739 ft 471 kts 67°
2026-04-29 15:35 22.83606 87.39327 40739 ft 472 kts 67°
2026-04-29 15:36 22.86234 87.45921 40739 ft 472 kts 68°
2026-04-29 15:36 22.88833 87.52484 40737 ft 471 kts 68°
2026-04-29 15:37 22.91425 87.59040 40486 ft 471 kts 68°
2026-04-29 15:37 22.92728 87.62343 40190 ft 467 kts 68°
2026-04-29 15:37 22.94019 87.65607 39894 ft 463 kts 69°
2026-04-29 15:37 22.95293 87.68836 39594 ft 458 kts 69°
2026-04-29 15:38 22.96553 87.72037 39266 ft 456 kts 69°
2026-04-29 15:38 22.97812 87.75242 38918 ft 455 kts 69°
2026-04-29 15:38 22.99048 87.78387 38539 ft 454 kts 69°
2026-04-29 15:38 23.00294 87.81557 38112 ft 454 kts 69°
2026-04-29 15:39 23.01528 87.84700 37557 ft 455 kts 69°
2026-04-29 15:39 23.02770 87.87865 36887 ft 456 kts 69°
2026-04-29 15:39 23.04032 87.91074 36129 ft 458 kts 70°
2026-04-29 15:39 23.05290 87.94287 35316 ft 461 kts 70°
2026-04-29 15:40 23.06539 87.97482 34501 ft 463 kts 70°
2026-04-29 15:40 23.07812 88.00730 33690 ft 466 kts 70°
2026-04-29 15:40 23.09092 88.04009 32985 ft 466 kts 70°
2026-04-29 15:40 23.10358 88.07256 32240 ft 468 kts 70°
2026-04-29 15:41 23.11625 88.10507 31696 ft 465 kts 70°
2026-04-29 15:41 23.12904 88.13788 31112 ft 464 kts 70°
2026-04-29 15:41 23.14157 88.17003 30509 ft 463 kts 69°
2026-04-29 15:41 23.15421 88.20249 29902 ft 462 kts 70°
2026-04-29 15:42 23.16697 88.23536 29275 ft 462 kts 69°
2026-04-29 15:42 23.17943 88.26746 28695 ft 461 kts 69°
2026-04-29 15:42 23.19203 88.29985 28164 ft 458 kts 69°
2026-04-29 15:42 23.20435 88.33157 27673 ft 455 kts 68°
2026-04-29 15:43 23.21683 88.36367 27215 ft 451 kts 68°
2026-04-29 15:43 23.22912 88.39530 26750 ft 448 kts 68°
2026-04-29 15:43 23.24127 88.42668 26266 ft 446 kts 68°
2026-04-29 15:43 23.25343 88.45804 25812 ft 442 kts 68°
2026-04-29 15:44 23.26534 88.48876 25330 ft 440 kts 68°
2026-04-29 15:44 23.27743 88.52007 24902 ft 436 kts 68°
2026-04-29 15:44 23.28922 88.55052 24430 ft 434 kts 67°
2026-04-29 15:44 23.30094 88.58086 23986 ft 431 kts 67°
2026-04-29 15:45 23.31250 88.61086 23549 ft 429 kts 67°
2026-04-29 15:45 23.32412 88.64100 23109 ft 426 kts 67°
2026-04-29 15:45 23.33575 88.67110 22665 ft 423 kts 67°
2026-04-29 15:45 23.34713 88.70056 22284 ft 419 kts 67°
2026-04-29 15:46 23.35847 88.73001 21908 ft 415 kts 67°
2026-04-29 15:46 23.36971 88.75925 21483 ft 413 kts 67°
2026-04-29 15:46 23.38104 88.78867 21099 ft 410 kts 67°
2026-04-29 15:46 23.39210 88.81748 20684 ft 407 kts 67°
2026-04-29 15:47 23.40304 88.84597 20269 ft 405 kts 67°
2026-04-29 15:47 23.41400 88.87450 19878 ft 402 kts 67°
2026-04-29 15:47 23.42478 88.90260 19515 ft 399 kts 67°
2026-04-29 15:47 23.43562 88.93082 19149 ft 395 kts 67°
2026-04-29 15:48 23.44613 88.95830 18776 ft 392 kts 67°
2026-04-29 15:48 23.45673 88.98601 18379 ft 390 kts 67°
2026-04-29 15:48 23.46723 89.01349 17952 ft 389 kts 67°
2026-04-29 15:48 23.47754 89.04045 17579 ft 386 kts 67°
2026-04-29 15:49 23.48788 89.06752 17211 ft 383 kts 67°
2026-04-29 15:49 23.49827 89.09471 16832 ft 380 kts 67°
2026-04-29 15:49 23.50838 89.12116 16428 ft 379 kts 67°
2026-04-29 15:49 23.51855 89.14784 16033 ft 376 kts 67°
2026-04-29 15:50 23.52871 89.17449 15710 ft 371 kts 67°
2026-04-29 15:50 23.53865 89.20056 15338 ft 369 kts 67°
2026-04-29 15:50 23.54851 89.22646 14933 ft 367 kts 67°
2026-04-29 15:50 23.55827 89.25210 14588 ft 364 kts 67°
2026-04-29 15:51 23.56807 89.27785 14200 ft 362 kts 67°
2026-04-29 15:51 23.57781 89.30348 13833 ft 360 kts 68°
2026-04-29 15:51 23.58742 89.32877 13455 ft 358 kts 67°
2026-04-29 15:51 23.59699 89.35400 13077 ft 355 kts 67°
2026-04-29 15:52 23.60661 89.37936 12698 ft 353 kts 67°
2026-04-29 15:52 23.61614 89.40449 12331 ft 351 kts 68°
2026-04-29 15:52 23.62546 89.42906 11956 ft 349 kts 68°
2026-04-29 15:52 23.63482 89.45374 11574 ft 347 kts 68°
2026-04-29 15:53 23.64416 89.47842 11192 ft 345 kts 68°
2026-04-29 15:53 23.65329 89.50252 10808 ft 344 kts 68°
2026-04-29 15:53 23.66255 89.52701 10408 ft 343 kts 68°
2026-04-29 15:53 23.67165 89.55108 10037 ft 341 kts 68°
2026-04-29 15:54 23.68076 89.57520 9898 ft 330 kts 68°
2026-04-29 15:54 23.68935 89.59798 9868 ft 317 kts 68°
2026-04-29 15:54 23.69766 89.61998 9843 ft 304 kts 68°
2026-04-29 15:54 23.70577 89.64150 9634 ft 300 kts 68°
2026-04-29 15:55 23.71368 89.66248 9322 ft 300 kts 69°
2026-04-29 15:55 23.72167 89.68371 9004 ft 299 kts 69°
2026-04-29 15:55 23.72971 89.70506 8691 ft 299 kts 69°
2026-04-29 15:55 23.73760 89.72604 8398 ft 298 kts 69°
2026-04-29 15:56 23.74554 89.74719 8099 ft 297 kts 69°
2026-04-29 15:56 23.75338 89.76801 7792 ft 297 kts 69°
2026-04-29 15:56 23.76129 89.78902 7488 ft 296 kts 69°
2026-04-29 15:56 23.76920 89.81007 7193 ft 296 kts 69°
2026-04-29 15:57 23.77697 89.83076 6897 ft 295 kts 69°
2026-04-29 15:57 23.78485 89.85175 6601 ft 295 kts 69°
2026-04-29 15:57 23.79265 89.87256 6301 ft 294 kts 69°
2026-04-29 15:57 23.80058 89.89369 6009 ft 294 kts 69°
2026-04-29 15:58 23.80839 89.91455 5720 ft 293 kts 69°
2026-04-29 15:58 23.81610 89.93514 5431 ft 293 kts 69°
2026-04-29 15:58 23.82391 89.95601 5143 ft 292 kts 69°
2026-04-29 15:58 23.83168 89.97680 4851 ft 292 kts 69°
2026-04-29 15:59 23.83934 89.99728 4577 ft 291 kts 69°
2026-04-29 15:59 23.84706 90.01791 4291 ft 291 kts 69°
2026-04-29 15:59 23.85478 90.03857 4036 ft 289 kts 69°
2026-04-29 15:59 23.86241 90.05898 3981 ft 287 kts 69°
2026-04-29 16:00 23.87013 90.07965 3979 ft 289 kts 69°
2026-04-29 16:00 23.87773 90.10001 3976 ft 289 kts 69°
2026-04-29 16:00 23.88542 90.12055 3973 ft 288 kts 69°
2026-04-29 16:00 23.89301 90.14076 3828 ft 281 kts 69°
2026-04-29 16:01 23.90019 90.16004 3557 ft 267 kts 69°
2026-04-29 16:01 23.90701 90.17876 3311 ft 253 kts 70°
2026-04-29 16:01 23.91341 90.19626 3082 ft 240 kts 69°
2026-04-29 16:01 23.91948 90.21274 2900 ft 227 kts 70°
2026-04-29 16:02 23.92528 90.22858 2701 ft 216 kts 69°
2026-04-29 16:02 23.93074 90.24355 2519 ft 207 kts 70°
2026-04-29 16:02 23.93599 90.25788 2412 ft 201 kts 70°
2026-04-29 16:02 23.94122 90.27206 2312 ft 196 kts 70°
2026-04-29 16:03 23.94630 90.28584 2214 ft 192 kts 70°
2026-04-29 16:03 23.94926 90.29971 2111 ft 183 kts 96°
2026-04-29 16:03 23.94664 90.31306 2019 ft 171 kts 123°
2026-04-29 16:03 23.93913 90.32239 1967 ft 155 kts 146°
2026-04-29 16:04 23.93055 90.32922 1820 ft 151 kts 152°
2026-04-29 16:04 23.92172 90.33571 1631 ft 148 kts 151°
2026-04-29 16:04 23.91333 90.34211 1430 ft 143 kts 149°
2026-04-29 16:04 23.90526 90.34849 1237 ft 138 kts 147°
2026-04-29 16:05 23.89751 90.35469 1053 ft 133 kts 147°
2026-04-29 16:05 23.89003 90.36066 887 ft 130 kts 146°
2026-04-29 16:05 23.88265 90.36654 729 ft 131 kts 145°
2026-04-29 16:05 23.87517 90.37248 554 ft 131 kts 144°
2026-04-29 16:06 23.86785 90.37830 391 ft 131 kts 143°
2026-04-29 16:06 23.86037 90.38429 231 ft 131 kts 143°
2026-04-29 16:06 23.85292 90.39017 66 ft 130 kts 143°
2026-04-29 16:06 23.84600 90.39572 50 ft 107 kts 144°
2026-04-29 16:07 23.84120 90.39952 54 ft 59 kts 143°
2026-04-29 16:07 23.83957 90.40085 55 ft 34 kts 143°
2026-04-29 16:07 23.83770 90.40293 55 ft 22 kts 116°
2026-04-29 16:07 23.83710 90.40436 51 ft 16 kts 107°
2026-04-29 16:08 23.83698 90.40539 49 ft 8 kts 85°
2026-04-29 16:08 23.83713 90.40608 49 ft 9 kts 70°
2026-04-29 16:08 23.83751 90.40684 48 ft 12 kts 55°
2026-04-29 16:08 23.83807 90.40768 46 ft 12 kts 54°
2026-04-29 16:09 23.83876 90.40808 47 ft 11 kts 342°
2026-04-29 16:09 23.83948 90.40752 48 ft 12 kts 324°
2026-04-29 16:09 23.84024 90.40694 49 ft 13 kts 324°
2026-04-29 16:09 23.84104 90.40631 49 ft 14 kts 324°
2026-04-29 16:10 23.84192 90.40563 50 ft 15 kts 323°
2026-04-29 16:10 23.84282 90.40492 52 ft 16 kts 323°
2026-04-29 16:10 23.84375 90.40415 52 ft 17 kts 323°
2026-04-29 16:10 23.84474 90.40336 52 ft 18 kts 324°
2026-04-29 16:11 23.84574 90.40257 53 ft 11 kts 324°
2026-04-29 16:11 23.84627 90.40235 53 ft 8 kts 16°
2026-04-29 16:11 23.84663 90.40268 55 ft 6 kts 52°
2026-04-29 16:11 23.84693 90.40311 56 ft 6 kts 52°
2026-04-29 16:12 23.84696 90.40340 56 ft 5 kts 107°
2026-04-29 16:12 23.84680 90.40365 56 ft 6 kts 139°
2026-04-29 16:12 23.84614 90.40415 56 ft 9 kts 144°
2026-04-29 16:12 23.84588 90.40435 56 ft 3 kts 138°
2026-04-29 16:13 23.84583 90.40463 56 ft 3 kts 59°
2026-04-29 16:13 23.84607 90.40482 56 ft 3 kts 39°
2026-04-29 16:13 23.84615 90.40494 56 ft 2 kts 52°
2026-04-29 16:13 23.84625 90.40507 56 ft 0 kts 53°
2026-04-29 16:14 23.84625 90.40508 56 ft 0 kts 53°